Regional Weather Roundup
Issued by NWS

Home | Current Version | Previous Version | Graphics & Text | Print | Product List | Glossary On
Versions: 1 2 3 4 5 6 7 8 9 10 11 12 13 14 15 16 17 18 19 20 21 22 23 24 25 26 27 28 29 30 31 32 33 34 35 36 37 38 39 40 41 42 43 44 45 46 47 48 49 50
207
ASUS45 KTFX 192210
RWRMT
MONTANA REGIONAL WEATHER ROUNDUP
NATIONAL WEATHER SERVICE GREAT FALLS MT
300 PM MST THU JAN 19 2017

NOTE: "FAIR" INDICATES FEW OR NO CLOUDS BELOW 12000 FEET WITH NO
SIGNIFICANT WEATHER AND/OR OBSTRUCTIONS TO VISIBILITY.

MTZ001>007-043-192300-
WEST OF THE DIVIDE

CITY           SKY/WX    TMP DP  RH WIND       PRES   REMARKS
KALISPELL      CLOUDY    36  32  85 N3        29.51S FOG
MISSOULA       LGT RAIN  34  33  96 CALM      29.56S FOG
BUTTE          CLOUDY    35  25  66 S12       29.51F WCI  27
MULLAN PASS    SNOW      31  27  85 CALM      29.50S VSB 1/4
ANACONDA         N/A     41  28  60 S13G22    29.48F
DEER LODGE       N/A     39  28  65 SW6       29.51F
EUREKA           N/A     41  30  65 S5        29.51R
HAMILTON         N/A     36  32  87 E7        29.54S WCI  30
RONAN            N/A     36  32  85 CALM      29.61S
$$

MTZ008-052>055-192300-
SOUTHWEST MONTANA

CITY           SKY/WX    TMP DP  RH WIND       PRES   REMARKS
BOZEMAN        CLOUDY    35  26  69 CALM      29.52F
DILLON         CLOUDY    42  27  55 E6        29.54F
W YELLOWSTONE  LGT SNOW  27  25  93 SW7       29.62S WCI  19
ENNIS          PTSUNNY   34  25  69 S20       29.60S WCI  22
$$

MTZ009-010-012-014-046-048-049-054-192300-
EAST SLOPES AND CENTRAL MONTANA

CITY           SKY/WX    TMP DP  RH WIND       PRES   REMARKS
CUT BANK         N/A     41  27  57 MISG      29.41S
GREAT FALLS    CLOUDY    42  28  57 SW15      29.44F
MALMSTROM AFB  CLOUDY    42  31  63 SW14      29.45F
HELENA         MOSUNNY   37  26  64 CALM      29.48F
AUGUSTA          N/A     41  28  58 W12       29.43S
BOWMANS CRNR     N/A     38  30  74 S15       29.42F WCI  29
CHOTEAU          N/A     45  28  53 W9        29.44S
POWER            N/A     37  31  77 SW8       29.43S WCI  31
RAYNESFORD     CLOUDY    45  28  51 W7        29.45F
ULM            PTSUNNY   40  30  67 MISG      29.45F
$$

MTZ011-013-016-021-045-047-050-051-192300-
NORTH CENTRAL MONTANA

CITY           SKY/WX    TMP DP  RH WIND       PRES   REMARKS
HAVRE          CLOUDY    40  33  76 SW9       29.41S
LEWISTOWN      CLOUDY    40  31  70 CALM      29.46S
CHINOOK          N/A     45  34  65 NW3       29.40F
DENTON         CLOUDY    44  29  57 W20G26    29.40F
FORT BENTON      N/A     48  30  49 MISG      29.44S
GEYSER         PTSUNNY   44  29  55 W9        29.44S
GRASS RANGE    PTSUNNY   44  30  57 W10       29.42R
JUDITH GAP     PTSUNNY   42  28  56 N3        29.46S
ROY            CLOUDY    45  32  58 MISG      29.43R
STANFORD       PTSUNNY   41  31  66 CALM      29.44F
WINIFRED         N/A     45  31  57 W7        29.42F
$$

MTZ017>020-022>027-061-062-192300-
NORTHEAST MONTANA

CITY           SKY/WX    TMP DP  RH WIND       PRES   REMARKS
GLASGOW        SUNNY     32  24  72 SW3       29.42R
JORDAN           N/A     42  32  67 W7        29.42S
SIDNEY         CLOUDY    31  24  75 SW8       29.44R WCI  23
WOLF POINT     CLOUDY    30  22  72 SW5       29.43S
PLENTYWOOD       N/A     30  25  80 E5        29.41S
POPLAR           N/A     30  21  69 CALM      29.44R
SCOBEY           N/A     33  22  64 CALM      29.43S
$$

MTZ028>42-056>058-192300-
SOUTHCENTRAL AND SOUTHEAST MONTANA

CITY           SKY/WX    TMP DP  RH WIND       PRES   REMARKS
BAKER          CLOUDY    34  24  67 W6        29.44F WCI  29
BILLINGS       CLOUDY    40  25  55 SW16      29.48S
LIVINGSTON     CLOUDY    42  23  46 SW31G40   29.48F
MILES CITY     CLOUDY    31  20  63 S8        29.45S WCI  23
BIG TIMBER     MOSUNNY   41  25  52 W23G31    29.50S
EKALAKA          N/A     44  18  35 SW2       29.48
FORSYTH          N/A     37  21  52 CALM      29.46R
HARLOWTON      PTSUNNY   42  28  58 W22G31    29.46S
LAUREL           N/A     38  23  55 S1        29.52S
$$

REGIONAL REPORTS...DAKOTAS

CITY           SKY/WX    TMP DP  RH WIND       PRES   REMARKS
WILLISTON      CLOUDY    32  21  64 W5        29.43F
MINOT          CLOUDY    35  29  78 CALM      29.43S
DICKINSON      CLOUDY    33  25  72 W14       29.41R WCI  23
BEACH            N/A     36  27  69 SW8       29.46S WCI  29
CROSBY           N/A     30  27  86 SW15      29.43R WCI  19
TIOGA            N/A     32  28  86 CALM      29.43F
WATFORD CITY     N/A     30  25  80 CALM      29.43F
BISMARCK       CLOUDY    24  20  84 SE8       29.48R WCI  15
GRAND FORKS    CLOUDY    31  28  89 S16       29.56R FOG     WCI  20
FARGO          CLEAR     39  34  82 S15       29.58S WCI  31
BUFFALO SD       N/A     37  27  67 NW5       29.39R
RAPID CITY     SUNNY     37  27  67 W3        29.46S
$$

REGIONAL REPORTS...WYOMING/IDAHO/WASHINGTON

CITY           SKY/WX    TMP DP  RH WIND       PRES   REMARKS
GILLETTE       SUNNY     44  26  49 SW23      29.46R
SHERIDAN       CLOUDY    39  24  55 VRB5      29.48R
BUFFALO WY     CLOUDY    45  23  42 CALM      29.49R
CODY           CLOUDY    43  22  43 W16       29.49F
YELLOWSTONE LA   N/A     26  22  84 VRB6      29.61F WCI  19
IDAHO FALLS    CLOUDY    32  31  96 SW8       29.66F WCI  25
SALMON         CLOUDY    30  25  80 CALM      29.59F
BOISE          CLOUDY    37  32  82 SE8       29.66F WCI  31
SPOKANE        PTSUNNY   39  33  79 SW8       29.55F
$$

REGIONAL REPORTS...ALBERTA

CITY           SKY/WX    TMP DP  RH WIND       PRES   REMARKS
EDMONTON       PTSUNNY   37  25  60 CALM      29.14F
CALGARY        MOSUNNY   50  18  27 W15       29.24S
LETHBRIDGE     PTSUNNY   41  30  65 SW10      29.37R
MEDICINE HAT   PTSUNNY   48  34  57 S13       29.32R
WATERTON GATE    N/A     43  21  42 SW23G32     N/A
CARDSTON         N/A     46  21  36 W14G23      N/A
MILK RIVER       N/A     43  30  61 W13         N/A
$$

REGIONAL REPORTS...SASKATCHEWAN

CITY           SKY/WX    TMP DP  RH WIND       PRES   REMARKS
SWIFT CURRENT  PTSUNNY   43  34  70 SW15      29.33R
REGINA         PTSUNNY   34  28  80 SE12      29.38S WCI  25
SASKATOON      MOCLDY    37  34  87 S7        29.29F
CYPRESS HILLS    N/A     39  27  60 W13G18      N/A  WCI  32
VAL MARIE        N/A     36  30  80 S6          N/A  WCI  31
ROCKGLEN         N/A     43  34  70 W7          N/A
ASSINIBOIA       N/A     39  30  70 SE5         N/A
$$




USA.gov is the U.S. government's official web portal to all federal, state and local government web resources and services.